This is the latest recevied weather packets stored in our database for station/object KB3VSP. If no packets are shown the sender has not sent any weather packets the latest 1 day(s).
| Time | Temp. | Humidity | Pressure | Rain* | Wind** | Luminosity | Snow |
|---|---|---|---|---|---|---|---|
| 1778030729 | 20° C | 57% | 1008 hPa | 0 mm | - | 0 W/m² | - |
| 1778030124 | 20° C | 57% | 1008 hPa | 0 mm | - | 0 W/m² | - |
| 1778029514 | 20° C | 57% | 1007.8 hPa | 0 mm | - | 0 W/m² | - |
| 1778029210 | 20.56° C | 57% | 1007.9 hPa | 0 mm | - | 0 W/m² | - |
| 1778027996 | 20.56° C | 58% | 1007.7 hPa | 0 mm | - | 0 W/m² | - |
| 1778027693 | 20.56° C | 58% | 1008 hPa | 0 mm | - | 0 W/m² | - |
| 1778027389 | 20.56° C | 58% | 1007.7 hPa | 0 mm | - | 0 W/m² | - |
| 1778026781 | 20.56° C | 59% | 1007.9 hPa | 0 mm | - | 0 W/m² | - |
| 1778026478 | 20.56° C | 59% | 1007.7 hPa | 0 mm | - | 0 W/m² | - |
| 1778025873 | 20.56° C | 59% | 1007.9 hPa | 0 mm | - | 3 W/m² | - |
| 1778025268 | 20.56° C | 60% | 1008 hPa | 0 mm | - | 1 W/m² | - |
| 1778024662 | 20.56° C | 60% | 1007.9 hPa | 0 mm | - | 6 W/m² | - |
| 1778021937 | 21.11° C | 59% | 1007.9 hPa | 0 mm | - | 35 W/m² | - |
| 1778020724 | 21.11° C | 58% | 1008.2 hPa | 0 mm | - | 58 W/m² | - |
| 1778020421 | 21.11° C | 59% | 1008.2 hPa | 0 mm | - | 51 W/m² | - |
| 1778019207 | 21.11° C | 58% | 1008.1 hPa | 0 mm | - | 49 W/m² | - |
| 1778018601 | 21.11° C | 58% | 1008.2 hPa | 0 mm | - | 54 W/m² | - |
| 1778017997 | 21.67° C | 58% | 1008.2 hPa | 0 mm | - | 46 W/m² | - |
| 1778017392 | 21.67° C | 58% | 1008.4 hPa | 0 mm | - | 72 W/m² | - |
| 1778014967 | 21.67° C | 59% | 1008.1 hPa | 0 mm | - | 73 W/m² | - |
| 1778014664 | 21.67° C | 59% | 1008.1 hPa | 0 mm | - | 62 W/m² | - |
* Rain latest hour (hover to see other rain measurements)
** Current wind speed in m/s (hover to see current wind gust speed)